Wind_Speed
25 23 21 22 22 21 20 19 18 17 17 17 17 16 15 15 14 14 15 16 17 17 18 18 17 16 16 16 16 16 16 16 17 17 17 17 17 17 17 17 17 18
26 24 23 23 22 21 20 19 18 17 18 19 18 16 16 15 14 14 15 16 17 18 18 17 17 16 16 16 16 16 17 17 17 17 17 17 16 16 16 17 17 18
26 26 23 23 22 21 20 19 19 18 18 19 18 16 16 15 14 13 15 16 17 18 18 17 16 16 16 16 16 17 17 17 17 16 16 15 15 16 16 17 17 18
27 27 24 23 23 21 20 21 20 19 19 19 17 15 15 14 13 13 14 16 17 18 17 16 16 16 16 16 17 17 16 15 14 15 15 14 15 15 16 17 17 18
28 27 25 25 24 22 21 22 21 20 20 19 16 15 15 14 13 14 15 16 17 17 17 16 15 16 16 16 16 15 14 13 13 14 14 14 14 15 16 17 18 18
30 29 27 26 25 23 22 22 20 20 20 18 16 15 14 14 14 14 16 17 17 17 17 15 15 16 16 16 15 13 13 13 14 14 14 14 14 15 17 18 18 18
31 29 28 27 26 24 23 22 20 19 19 17 16 15 15 15 14 15 17 18 17 17 16 15 15 16 16 15 15 14 13 14 14 14 13 14 15 16 17 18 19 18
32 30 29 28 27 25 24 23 20 19 18 17 16 15 15 15 15 16 18 18 18 17 16 15 15 16 16 15 15 14 15 15 14 14 14 15 16 16 17 18 18 18
33 32 30 29 27 25 25 23 21 19 18 17 16 16 16 15 15 17 18 18 18 17 16 16 16 16 15 15 15 16 16 16 15 14 14 16 16 17 18 18 18 17
35 33 31 31 28 26 25 23 21 19 18 17 17 17 17 16 16 17 18 18 18 18 17 17 16 16 16 16 16 16 17 16 15 15 15 16 16 17 18 18 18 17
35 33 32 31 29 27 26 24 22 20 18 18 18 19 18 16 16 16 17 18 18 19 18 17 17 17 16 16 17 17 17 16 16 15 16 16 17 18 19 18 17 18
36 34 33 32 29 27 26 24 23 21 19 19 19 20 19 17 16 17 17 18 19 19 19 18 18 17 17 17 17 17 17 16 16 16 16 17 18 19 19 18 18 19
36 34 34 33 30 27 26 24 24 22 20 20 20 21 20 18 17 18 18 19 20 20 19 19 19 18 17 17 17 17 16 16 17 17 18 18 19 20 20 19 19 19
36 34 35 34 30 28 26 25 25 22 21 21 21 22 22 20 19 19 20 20 20 20 20 19 19 18 17 17 17 17 17 17 18 18 18 19 20 21 21 20 19 19
37 35 35 34 31 28 27 26 25 23 22 22 23 24 23 22 21 21 21 21 20 19 20 19 18 18 17 18 18 17 17 18 18 19 19 20 21 21 21 20 19 19
37 36 36 35 32 29 27 26 25 24 23 24 25 25 25 24 23 22 21 21 20 20 19 19 18 18 18 18 18 18 18 18 19 19 20 21 22 22 21 20 18 18
38 37 37 35 32 29 28 26 25 25 25 26 26 26 26 25 24 22 21 21 21 20 20 19 19 19 19 19 19 18 19 19 19 20 22 23 24 23 20 18 17 17
39 38 37 35 32 30 29 27 26 26 27 27 27 27 27 26 25 23 22 21 21 21 21 20 19 19 20 20 19 19 19 20 20 21 22 24 24 22 18 17 17 17
39 39 37 35 33 31 30 29 28 28 29 29 28 28 27 28 27 24 22 22 22 21 21 21 20 21 21 20 20 20 20 21 22 21 21 22 23 20 17 17 17 17
40 39 37 35 34 33 32 32 30 29 29 30 29 29 29 29 27 24 22 22 22 22 22 22 22 22 21 20 20 20 20 21 21 20 19 20 21 20 18 18 18 18
40 39 37 36 35 34 34 33 32 30 30 30 30 30 30 29 26 23 22 23 23 23 23 23 23 23 22 22 21 20 20 20 20 19 18 19 20 20 20 20 20 19
40 39 38 37 36 35 34 33 33 32 32 33 33 32 31 30 27 25 23 23 23 23 23 23 23 23 23 23 22 21 20 19 19 19 18 18 19 20 20 21 21 20
41 40 39 37 37 36 34 32 33 34 34 34 35 34 32 31 28 24 22 22 23 23 24 24 23 23 24 25 24 22 20 19 19 19 18 18 19 20 20 22 21 21
42 41 40 39 38 36 33 31 32 34 35 36 36 34 32 30 27 23 22 23 24 24 24 24 23 23 25 26 24 20 19 18 18 18 19 19 19 20 20 21 22 24
42 42 42 40 37 34 32 30 28 30 33 36 35 32 30 28 25 23 23 24 24 24 24 24 24 24 26 25 22 19 17 17 18 19 20 20 20 20 21 21 22 24
40 41 40 39 35 33 31 28 28 31 35 33 28 27 28 26 25 26 26 25 23 23 22 23 23 24 23 21 19 18 18 18 19 21 21 21 21 22 22 21 21 22
Wind_Direction
250 238 238 243 246 249 250 247 241 239 242 247 247 246 240 235 238 244 246 247 247 246 247 246 244 244 245 246 249 254 259 263 264 263 265 268 271 273 276 278 280 281
249 236 236 241 243 246 248 249 244 239 241 244 242 237 232 232 238 243 246 247 247 246 247 246 244 243 245 247 252 258 263 265 264 263 263 266 268 271 275 277 279 279
247 235 236 239 241 245 248 249 244 239 241 242 237 229 226 231 237 240 244 246 246 246 246 246 245 244 245 248 254 260 264 264 262 261 261 263 267 271 274 276 278 279
246 235 235 237 238 242 244 245 242 239 241 241 235 228 227 233 239 241 243 244 242 242 244 247 247 246 246 250 256 260 262 261 259 259 260 263 268 272 274 276 277 279
244 234 233 234 235 236 239 243 243 240 239 238 233 228 229 236 242 243 243 241 238 237 241 246 246 245 246 250 256 260 260 259 259 259 261 266 270 273 275 277 278 281
241 231 230 231 231 233 236 241 242 238 237 236 232 229 231 238 243 243 242 239 235 235 239 243 242 241 245 251 257 260 259 259 259 261 264 269 272 275 277 279 281 284
239 230 227 228 228 230 234 237 238 238 238 236 232 230 233 240 245 244 242 240 237 237 240 242 240 241 246 254 259 260 258 258 259 262 267 271 274 276 279 282 285 286
237 228 226 227 227 228 231 234 236 238 239 237 232 229 232 240 245 243 241 241 239 239 241 243 242 245 250 256 260 259 257 258 259 263 268 272 275 278 281 285 286 286
232 225 225 226 225 226 230 233 236 238 240 238 231 227 230 238 243 242 240 240 240 241 242 244 245 248 253 256 258 258 257 257 259 263 268 272 275 278 283 285 284 284
228 223 224 225 224 225 228 232 235 238 239 237 231 227 229 235 241 242 240 239 241 242 243 244 247 249 251 254 257 258 257 257 258 263 267 271 275 279 282 283 281 283
225 221 224 225 224 224 227 230 235 237 237 235 231 227 228 233 240 242 241 240 241 242 243 245 248 249 251 254 257 258 257 257 257 261 265 269 274 279 280 280 280 283
223 221 223 225 225 225 225 229 233 235 235 233 231 228 228 232 238 240 241 242 241 242 244 246 248 249 250 253 257 258 256 256 256 259 264 269 275 279 278 278 280 283
222 222 224 226 227 225 224 227 231 233 232 231 230 228 228 232 236 239 241 242 243 243 244 246 248 248 249 252 257 258 257 256 257 260 266 271 276 278 276 277 281 281
222 222 224 226 227 226 225 226 229 230 229 229 229 227 228 230 232 236 240 243 244 244 244 246 247 247 249 253 257 259 258 257 259 263 268 273 276 276 275 278 280 276
223 223 224 227 228 227 227 227 228 229 228 228 228 227 228 230 231 235 241 244 246 246 246 246 246 247 249 253 257 259 260 261 263 267 270 273 275 274 276 278 275 270
223 224 225 227 229 229 229 229 228 228 228 228 227 226 228 229 231 234 240 244 247 248 247 246 245 246 248 252 256 258 261 264 267 270 273 274 274 273 275 274 268 267
224 225 225 228 231 231 231 230 229 227 228 228 226 226 228 230 231 234 239 244 246 247 247 245 245 246 248 252 255 257 261 266 270 273 275 274 273 271 270 266 261 266
225 226 227 229 231 233 234 232 230 228 228 229 227 226 230 231 230 230 234 241 245 246 246 245 244 246 249 252 256 259 263 266 269 272 274 278 279 276 267 259 258 265
226 227 228 230 232 235 236 233 230 229 228 229 229 229 230 233 232 229 230 238 243 244 244 244 244 246 250 254 257 261 264 267 270 271 275 282 287 282 266 255 256 262
227 229 230 231 233 235 236 235 234 232 230 231 232 230 230 232 233 232 231 236 240 242 242 243 244 247 251 255 259 262 266 269 272 276 279 282 284 280 267 257 256 258
228 230 231 232 234 237 239 239 237 234 231 233 233 233 232 231 231 232 232 234 237 240 241 242 244 247 252 255 259 262 265 268 271 276 280 280 280 278 269 260 257 257
229 232 233 234 236 240 242 243 241 236 233 233 234 233 232 229 228 228 229 232 235 239 241 243 245 248 252 254 256 259 261 263 268 275 279 280 282 280 271 262 259 257
232 234 236 237 240 243 244 246 245 238 233 232 232 233 233 229 227 227 230 232 236 238 241 243 245 249 252 253 254 258 261 263 267 273 278 282 285 284 274 264 258 254
234 237 239 241 244 246 247 248 245 237 232 231 230 231 233 231 227 226 230 234 237 239 241 243 245 247 249 252 256 260 264 265 266 270 274 279 283 283 277 266 258 255
235 237 241 243 244 245 247 246 240 234 233 233 231 230 232 235 233 230 232 236 239 242 243 243 245 246 248 253 259 262 263 262 263 267 270 274 278 280 275 266 258 256
238 239 242 244 244 245 246 241 235 237 242 244 239 234 234 236 236 235 237 238 239 243 245 246 250 251 249 251 257 262 262 261 262 267 271 275 278 279 274 263 254 253
Height
3133 3135 3136 3137 3137 3138 3139 3140 3142 3144 3144 3144 3144 3144 3144 3145 3146 3146 3147 3148 3149 3150 3151 3152 3152 3152 3152 3153 3153 3153 3154 3154 3154 3155 3155 3155 3154 3154 3154 3153 3153 3153
3131 3132 3133 3134 3135 3135 3136 3137 3140 3141 3141 3141 3142 3141 3142 3143 3144 3145 3145 3146 3147 3148 3149 3150 3150 3150 3150 3151 3151 3151 3152 3152 3152 3152 3153 3153 3152 3152 3152 3151 3151 3150
3128 3129 3130 3131 3132 3133 3134 3135 3136 3137 3138 3138 3139 3139 3140 3141 3142 3143 3144 3144 3145 3146 3147 3147 3148 3148 3148 3149 3149 3149 3150 3150 3150 3150 3151 3151 3150 3150 3150 3149 3149 3148
3125 3127 3128 3129 3130 3131 3132 3132 3133 3134 3135 3135 3136 3137 3138 3139 3140 3141 3142 3143 3144 3144 3145 3145 3146 3146 3146 3147 3147 3148 3148 3148 3148 3148 3149 3149 3148 3148 3148 3147 3147 3146
3122 3124 3125 3126 3127 3128 3129 3129 3130 3130 3132 3132 3133 3134 3136 3137 3138 3139 3140 3141 3142 3143 3143 3144 3144 3144 3145 3145 3146 3146 3146 3146 3146 3146 3146 3146 3146 3146 3146 3145 3145 3144
3119 3121 3122 3123 3125 3125 3126 3127 3127 3128 3129 3129 3130 3132 3133 3135 3136 3137 3138 3139 3140 3141 3141 3142 3142 3142 3143 3143 3144 3144 3144 3144 3144 3144 3144 3144 3144 3144 3144 3143 3142 3142
3116 3117 3119 3120 3121 3123 3123 3124 3124 3125 3126 3127 3128 3130 3131 3133 3134 3135 3136 3137 3138 3138 3139 3140 3140 3141 3141 3141 3142 3142 3142 3142 3142 3142 3142 3142 3142 3142 3141 3141 3140 3139
3113 3114 3115 3116 3118 3120 3120 3121 3122 3122 3123 3124 3126 3127 3129 3130 3131 3132 3133 3134 3135 3136 3137 3138 3138 3138 3139 3139 3139 3140 3140 3140 3140 3140 3140 3140 3140 3139 3139 3138 3137 3137
3109 3111 3112 3113 3115 3117 3117 3118 3119 3120 3121 3122 3123 3125 3127 3128 3129 3130 3131 3132 3133 3134 3134 3135 3135 3136 3136 3136 3137 3137 3137 3138 3138 3138 3138 3137 3137 3137 3137 3136 3135 3134
3106 3108 3109 3110 3112 3114 3115 3116 3117 3117 3119 3120 3121 3123 3124 3126 3127 3128 3129 3129 3130 3131 3132 3132 3133 3133 3134 3134 3134 3135 3135 3135 3135 3135 3135 3135 3135 3135 3134 3133 3133 3132
3103 3104 3106 3107 3109 3111 3112 3113 3114 3115 3116 3117 3118 3120 3122 3123 3124 3125 3126 3127 3128 3129 3129 3130 3130 3131 3131 3132 3132 3132 3132 3133 3133 3133 3133 3133 3132 3132 3131 3131 3130 3129
3099 3101 3103 3104 3106 3108 3109 3110 3111 3112 3113 3115 3116 3118 3119 3121 3122 3123 3124 3124 3125 3126 3126 3127 3128 3128 3129 3129 3130 3130 3130 3130 3130 3130 3130 3130 3130 3129 3128 3128 3128 3127
3096 3098 3100 3102 3103 3105 3106 3107 3108 3109 3110 3112 3113 3115 3117 3118 3119 3120 3121 3122 3122 3123 3124 3124 3125 3126 3127 3127 3127 3127 3127 3128 3128 3128 3128 3127 3127 3126 3126 3125 3125 3124
3093 3095 3097 3098 3100 3101 3103 3104 3105 3106 3108 3109 3111 3112 3114 3115 3116 3117 3118 3119 3119 3120 3121 3122 3123 3124 3124 3125 3125 3125 3125 3125 3125 3125 3125 3125 3124 3123 3123 3123 3122 3122
3089 3091 3093 3095 3096 3098 3100 3101 3102 3104 3105 3106 3108 3109 3111 3112 3113 3114 3115 3116 3117 3118 3119 3120 3120 3121 3122 3122 3122 3122 3122 3122 3122 3122 3122 3122 3121 3121 3120 3120 3120 3120
3086 3088 3090 3091 3093 3095 3096 3098 3099 3101 3102 3103 3105 3106 3108 3109 3110 3111 3112 3113 3114 3115 3116 3117 3118 3119 3119 3120 3120 3120 3120 3120 3120 3120 3119 3119 3118 3118 3118 3117 3117 3117
3082 3084 3086 3088 3090 3091 3093 3095 3097 3098 3099 3100 3102 3103 3104 3106 3107 3108 3109 3110 3111 3112 3113 3114 3115 3116 3116 3117 3117 3117 3117 3117 3117 3117 3117 3116 3115 3115 3115 3115 3115 3115
3078 3080 3082 3084 3086 3088 3090 3092 3094 3095 3096 3097 3099 3100 3102 3102 3103 3104 3106 3107 3108 3109 3110 3111 3112 3113 3113 3114 3114 3115 3115 3115 3115 3114 3114 3113 3113 3112 3112 3112 3112 3113
3074 3076 3079 3081 3083 3085 3087 3089 3090 3091 3093 3094 3096 3098 3099 3099 3100 3101 3103 3104 3105 3107 3107 3108 3109 3109 3110 3111 3112 3112 3112 3112 3112 3111 3111 3111 3111 3110 3109 3109 3110 3110
3071 3073 3076 3078 3080 3082 3084 3085 3087 3088 3090 3092 3093 3094 3095 3095 3097 3100 3101 3102 3103 3104 3104 3105 3105 3106 3107 3108 3109 3109 3110 3109 3109 3109 3109 3109 3108 3108 3107 3107 3107 3108
3067 3070 3073 3075 3077 3079 3080 3082 3083 3085 3086 3088 3089 3090 3091 3092 3094 3097 3098 3099 3100 3101 3101 3102 3102 3103 3104 3105 3106 3106 3107 3107 3107 3107 3107 3107 3106 3106 3105 3105 3105 3106
3064 3066 3069 3071 3073 3075 3077 3079 3080 3081 3082 3083 3085 3086 3087 3089 3091 3093 3095 3096 3097 3097 3098 3099 3100 3100 3101 3102 3103 3104 3104 3104 3104 3104 3104 3104 3104 3104 3103 3103 3103 3104
3061 3063 3065 3067 3069 3072 3074 3076 3076 3076 3077 3079 3080 3082 3083 3085 3088 3090 3092 3093 3094 3094 3095 3096 3097 3098 3098 3098 3100 3101 3101 3101 3102 3102 3102 3102 3101 3101 3101 3101 3101 3101
3057 3059 3061 3063 3065 3068 3071 3072 3072 3072 3073 3074 3075 3078 3081 3083 3085 3088 3089 3090 3091 3092 3093 3093 3094 3095 3095 3095 3097 3098 3098 3099 3099 3099 3099 3099 3099 3099 3099 3098 3099 3098
3053 3054 3056 3058 3061 3065 3068 3069 3069 3069 3069 3069 3072 3076 3079 3081 3083 3085 3087 3088 3089 3089 3090 3091 3091 3092 3093 3093 3094 3095 3095 3096 3096 3096 3096 3096 3096 3096 3096 3096 3096 3096
3049 3050 3051 3054 3057 3061 3064 3066 3066 3066 3065 3067 3072 3076 3077 3079 3081 3083 3084 3085 3086 3087 3087 3088 3088 3089 3090 3091 3092 3092 3092 3093 3093 3093 3093 3093 3093 3093 3093 3093 3093 3094